This is the latest recevied weather packets stored in our database for station/object KQ4OSL. If no packets are shown the sender has not sent any weather packets the latest 10 day(s).
| Time | Temp. | Humidity | Pressure | Rain* | Wind** | Luminosity | Snow |
|---|---|---|---|---|---|---|---|
| 1777424406 | 16.11° C | 99% | 1021.7 hPa | 0 mm | - | 0 W/m² | - |
| 1777424103 | 16.11° C | 99% | 1021.6 hPa | 0 mm | - | 0 W/m² | - |
| 1777423800 | 15.56° C | 99% | 1021.3 hPa | 0 mm | - | 0 W/m² | - |
| 1777423496 | 15.56° C | 99% | 1021.4 hPa | 0 mm | - | 0 W/m² | - |
| 1777423191 | 15.56° C | 99% | 1021.3 hPa | 0 mm | - | 0 W/m² | - |
| 1777422890 | 15.56° C | 99% | 1020.8 hPa | 0 mm | - | 0 W/m² | - |
| 1777422586 | 16.11° C | 99% | 1020.5 hPa | 0 mm | - | 0 W/m² | - |
| 1777422283 | 16.11° C | 99% | 1020.3 hPa | 0 mm | - | 0 W/m² | - |
| 1777421983 | 16.11° C | 99% | 1020.2 hPa | 0 mm | - | 0 W/m² | - |
| 1777421678 | 16.11° C | 99% | 1019.9 hPa | 0 mm | - | 1 W/m² | - |
| 1777421372 | 16.11° C | 99% | 1019.5 hPa | 0 mm | - | 1 W/m² | - |
| 1777421070 | 16.11° C | 99% | 1019.4 hPa | 0 mm | - | 2 W/m² | - |
| 1777420766 | 16.11° C | 99% | 1019.2 hPa | 0 mm | - | 5 W/m² | - |
| 1777420462 | 16.11° C | 99% | 1018.9 hPa | 0 mm | - | 8 W/m² | - |
| 1777420159 | 16.11° C | 99% | 1018.8 hPa | 0 mm | - | 10 W/m² | - |
| 1777419855 | 16.11° C | 99% | 1019 hPa | 0 mm | - | 11 W/m² | - |
| 1777419552 | 16.11° C | 99% | 1018.7 hPa | 0 mm | - | 12 W/m² | - |
| 1777419251 | 16.11° C | 99% | 1019.3 hPa | 0 mm | - | 13 W/m² | - |
| 1777418948 | 16.11° C | 99% | 1019.3 hPa | 0 mm | - | 15 W/m² | - |
| 1777418643 | 16.67° C | 99% | 1019.1 hPa | 0 mm | - | 15 W/m² | - |
| 1777418340 | 16.67° C | 99% | 1019.3 hPa | 0 mm | - | 22 W/m² | - |
| 1777418036 | 16.67° C | 99% | 1019 hPa | 0 mm | - | 24 W/m² | - |
| 1777417731 | 16.67° C | 99% | 1019 hPa | 0 mm | - | 38 W/m² | - |
| 1777417427 | 16.67° C | 98% | 1019.1 hPa | 0 mm | - | 36 W/m² | - |
| 1777417124 | 16.67° C | 98% | 1019.3 hPa | 0 mm | - | 30 W/m² | - |
* Rain latest hour (hover to see other rain measurements)
** Current wind speed in m/s (hover to see current wind gust speed)